Regional Weather Roundup
Issued by NWS

Home | Current Version | Previous Version | Graphics & Text | Print | Product List | Glossary On
Versions: 1 2 3 4 5 6 7 8 9 10 11 12 13 14 15 16 17 18 19 20 21 22 23 24 25 26 27 28 29 30 31 32 33 34 35 36 37 38 39 40 41 42 43 44 45 46 47 48 49 50
409
ASUS43 KIND 131609
RWRIN

WEATHER ROUNDUP FOR INDIANA
NATIONAL WEATHER SERVICE INDIANAPOLIS IN
1100 AM EST SAT FEB 13 2016

NOTE: "FAIR" INDICATES FEW OR NO CLOUDS BELOW 12,000 FEET WITH NO
SIGNIFICANT WEATHER AND/OR OBSTRUCTIONS TO VISIBILITY.

* - STATION DOES NOT REPORT WEATHER SUCH AS PRECIPITATION OR FOG.

+ - STATION NOT QUALITY CONTROLLED BY THE NATIONAL WEATHER SERVICE.
    USE DATA WITH CAUTION...ESPECIALLY DEWPOINT AND RELATIVE
    HUMIDITY OBSERVATIONS.

INZ001>003-010>013-019-020-131700-
NORTHWEST INDIANA

CITY           SKY/WX    TMP DP  RH WIND       PRES   REMARKS
GARY /AIRPORT/ MOSUNNY   12 -11  34 W12       30.60S WCI  -2
KNOX *+        MOSUNNY   10  -2  56 W15       30.56S WCI  -6
LA PORTE +     LGT SNOW  13   5  71 W9G17     30.54S WCI   0
MICHIGAN CITY+ LGT SNOW  12   3  67 W8G18     30.56R WCI   1
MONTICELLO +   SUNNY     11  -8  41 NW12      30.58S WCI  -3
RENSSELAER +   SUNNY     12 -15  29 NW8       30.59S WCI   1
VALPARAISO     MIX PCPN  11  -3  53 NW12      30.56S WCI  -3

$$

LMZ046-743>745-131700-
SOUTHERN LAKE MICHIGAN

STATION/POSITION TIME  TEMP    WIND        PRES    WAVE
                       AIR SEA DIR/SP/G            HT
                 (UTC) (F)     (DEG/KT/KT) (MB)    (FT)
BURNS HARBOR     1509   10     320/ 13/ 22 1035.2R
MICHIGAN CITY    1500   11     270/ 18/ 23   N/A

$$

INZ004-005-014>016-021>024-131700-
NORTH CENTRAL INDIANA

CITY           SKY/WX    TMP DP  RH WIND       PRES   REMARKS
ELKHART        LGT SNOW N/A N/A N/A MISG      30.50S
GOSHEN         LGT SNOW  11   6  81 W15       30.50R WCI  -5
LOGANSPORT +   SUNNY     12  -4  48 NW10      30.56S WCI  -1
PERU/GRISSOM   SUNNY     12   0  60 NW12      30.52S WCI  -2
ROCHESTER +    SUNNY     14  -4  44 W15       30.54S WCI  -1
SOUTH BEND     SNOW      12   7  80 W12       30.52R VSB 1/2 WCI  -2
WARSAW +       SUNNY     12   3  67 W16G22    30.51S WCI  -4

$$

INZ006>009-017-018-025>027-131700-
NORTHEAST INDIANA

CITY           SKY/WX    TMP DP  RH WIND       PRES   REMARKS
ANGOLA *+      PTSUNNY   10   3  72 W6        30.45S WCI   1
AUBURN +       PTSUNNY   12   5  73 W9        30.49S WCI   0
FORT WAYNE     MOSUNNY   11   4  73 W14       30.51S WCI  -5
HUNTINGTON +   SUNNY     10  -2  57 W9        30.52S WCI  -3

$$

INZ028-029-035-036-043>045-051>053-131700-
WEST CENTRAL INDIANA

CITY           SKY/WX    TMP DP  RH WIND       PRES   REMARKS
CRAWFORDSVL +  SUNNY      9  -7  48 W8        30.59S WCI  -4
GREENCASTLE +  SUNNY     12  -8  40 NW6       30.60S WCI   3
LAFAYETTE      SUNNY     11  -7  44 NW8       30.60S WCI  -1
TERRE HAUTE    SUNNY     12  -3  51 NW12      30.63R WCI  -2

$$

INZ030>032-037>040-046>048-054>057-064-065-131700-
CENTRAL INDIANA

CITY           SKY/WX    TMP DP  RH WIND       PRES   REMARKS
ANDERSON       MOSUNNY   12   1  62 NW12      30.55R WCI  -2
COLUMBUS       MOSUNNY   14   0  52 NW6       30.60R WCI   5
FISHERS *+     SUNNY     12   3  67 NW9       30.56  WCI   0
FRANKFORT +    SUNNY     14 -10  33 W9        30.57S WCI   1
GREENWOOD *+   SUNNY     14   3  62 NW5       30.57S WCI   6
INDIANAPOLIS   MOSUNNY   14  -3  47 NW9       30.56S WCI   2
-EAGLE CREEK   SUNNY     13  -1  54 W10       30.56S WCI   0
KOKOMO *+      SUNNY     12   0  57 NW13      30.54S WCI  -3
MARION +       SUNNY     10  -5  48 NW9       30.54S WCI  -2
MT COMFORT *+  SUNNY     14   0  52 N9        30.56R WCI   2
SHELBYVILLE    SUNNY     15   2  56 NW8       30.56R WCI   4
ZIONSVILLE +   SUNNY     12   0  59 W8        30.56S WCI   0

$$

INZ033-034-041-042-049-050-058-059-131700-
EAST CENTRAL INDIANA

CITY           SKY/WX    TMP DP  RH WIND       PRES   REMARKS
MUNCIE         SUNNY     11   1  64 NW9       30.53S WCI  -2

$$

INZ060-061-067>069-081>083-085>088-131700-
SOUTHWEST INDIANA

CITY           SKY/WX    TMP DP  RH WIND       PRES   REMARKS
EVANSVILLE     SUNNY     20   2  45 N7        30.64F WCI  11
HUNTINGBURG *+ SUNNY     18   1  49 N9        30.62S WCI   6
WASHINGTON +   SUNNY     15  -4  41 N8        30.63S WCI   5

$$

INZ062-063-066-070>080-084-089>092-131700-
SOUTH CENTRAL AND SOUTHEAST INDIANA

CITY           SKY/WX    TMP DP  RH WIND       PRES   REMARKS
BEDFORD +      SUNNY     16   1  53 NW6       30.59S WCI   7
BLOOMINGTON    SUNNY     14  -1  51 CALM      30.58R
MADISON *+     MOSUNNY   18   3  53 N3        30.59R
NORTH VERNON + MOSUNNY   14   1  57 CALM      30.58
SEYMOUR +      SUNNY     18   1  49 CALM      30.60R

$$





USA.gov is the U.S. government's official web portal to all federal, state and local government web resources and services.